Regional Weather Roundup
Issued by NWS Little Rock, AR

Home | Current Version | Previous Version | Graphics & Text | Print | Product List | Glossary On
Versions: 1 2 3 4 5 6 7 8 9 10 11 12 13 14 15 16 17 18 19 20 21 22 23 24 25 26 27 28 29 30 31 32 33 34 35 36 37 38 39 40 41 42 43 44 45 46 47 48 49 50
000
ASUS44 KLZK 161705
RWRLZK

WEATHER ROUNDUP FOR ARKANSAS
NATIONAL WEATHER SERVICE LITTLE ROCK AR
1200 PM CDT TUE SEP 16 2014

NOTE: "FAIR" INDICATES FEW OR NO CLOUDS BELOW 12,000 FEET WITH NO
SIGNIFICANT WEATHER AND/OR OBSTRUCTIONS TO VISIBILITY.

ARZ001-003-010-029-161800-
NORTHWEST ARKANSAS

CITY           SKY/WX    TMP DP  RH WIND       PRES   REMARKS
FAYETTEVILLE   CLOUDY    75  70  84 NW7       30.15F
FORT SMITH     CLOUDY    80  68  66 MISG      30.12F
HARRISON       CLOUDY    66  65  96 E5        30.18S FOG
BENTONVILLE    CLOUDY    72  66  83 NE5       30.16F
ROGERS         CLOUDY    69  66  90 E3        30.17F
SILOAM SPGS    CLOUDY    73  66  78 CALM      30.16F
HIGHFILL       CLOUDY    72  68  87 N6        30.15F FOG
SPRINGDALE     CLOUDY    72  70  94 CALM      30.17F FOG
$$

ARZ004-005-016-161800-
NORTH CENTRAL ARKANSAS

CITY           SKY/WX    TMP DP  RH WIND       PRES   REMARKS
BATESVILLE     CLOUDY    72  64  78 E3        30.15F
FLIPPIN        CLOUDY    66  57  72 E7        30.17F
MTN HOME       CLOUDY    65  60  84 NE6       30.17S
$$

ARZ040-041-161800-
WEST CENTRAL ARKANSAS

CITY           SKY/WX    TMP DP  RH WIND       PRES   REMARKS
MENA           PTSUNNY   82  70  65 CALM      30.14F HX  86
MOUNT IDA      MOSUNNY   83  68  60 CALM      30.10F HX  86
$$

ARZ009-017-025-026-028-161800-
NORTHEAST ARKANSAS

CITY           SKY/WX    TMP DP  RH WIND       PRES   REMARKS
CORNING          N/A     68  57  68 NE14      30.17F
JONESBORO      SUNNY     75  60  59 NE12      30.14F
NEWPORT        CLOUDY    74  64  70 E10       30.15F
WALNUT RIDGE   CLOUDY    70  57  64 NE9       30.16S
BLYTHEVILLE    PTSUNNY   74  62  66 NE9       30.15F
$$

ARZ022-023-033-042-044-161800-
CENTRAL ARKANSAS

CITY           SKY/WX    TMP DP  RH WIND       PRES   REMARKS
LITTLE ROCK    CLOUDY    77  67  71 VRB3      30.13S
N LITTLE ROCK  CLOUDY    75  70  84 NE5       30.13S
JACKSONVILLE   CLOUDY    74  68  80 NE5       30.13F
SEARCY         CLOUDY    72  67  84 NE9       30.15F
HOT SPRINGS    CLOUDY    82  70  66 VRB3      30.12F HX  86
RUSSELLVILLE   MOSUNNY   80  69  69 VRB3      30.12F
CLINTON        CLOUDY    73  70  88 CALM      30.15S
$$

ARZ036-161800-
EAST ARKANSAS

CITY           SKY/WX    TMP DP  RH WIND       PRES   REMARKS
WEST MEMPHIS   CLOUDY    72  69  90 NE8       30.11F
$$

ARZ050-053-066-070-073-161800-
SOUTHWEST ARKANSAS

CITY           SKY/WX    TMP DP  RH WIND       PRES   REMARKS
ARKADELPHIA    FAIR      83  69  62 VRB3      30.12F HX  86
CAMDEN         PTSUNNY   84  66  54 CALM      30.12S HX  86
TEXARKANA      PTSUNNY   81  69  67 N5        30.12F
EL DORADO      PTSUNNY   80  69  69 CALM      30.12F
DE QUEEN       SUNNY     81  70  69 CALM      30.11F
$$

ARZ056-057-069-161800-
SOUTHEAST ARKANSAS

CITY           SKY/WX    TMP DP  RH WIND       PRES   REMARKS
PINE BLUFF     SUNNY     83  69  62 VRB3      30.11F HX  86
STUTTGART      CLOUDY    75  68  78 N8        30.13S
MONTICELLO     MOSUNNY   82  68  62 N3        30.11F HX  85

$$





USA.gov is the U.S. government's official web portal to all federal, state and local government web resources and services.